GW5547 Weather Reports


time (UTC)temp
C
wind
direction
speed
KPH
gust
KPH
rain 1hr
cm
rain 24hr
cm
rain mn
cm
humidity
%
barometer
mb
20260506073032 14 0 0.0 0.0 0.00 0.00 0.00 88 1017.0
20260506071530 14 0 0.0 0.0 0.00 0.00 0.00 87 1016.9
20260506061536 14 0 0.0 1.6 0.00 0.00 0.00 86 1016.6
20260506044530 15 0 0.0 0.0 0.00 0.00 0.00 80 1016.1
20260506043030 15 0 0.0 0.0 0.00 0.00 0.00 80 1016.1
20260506041534 15 0 0.0 0.0 0.00 0.00 0.00 81 1015.9
20260506040030 15 0 0.0 0.0 0.00 0.00 0.00 81 1015.8
20260506034530 15 0 0.0 0.0 0.00 0.00 0.00 81 1015.7
20260506033032 15 0 0.0 0.0 0.00 0.00 0.00 80 1015.5
20260506031537 15 0 0.0 1.6 0.00 0.00 0.00 79 1015.4
20260506030030 15 0 0.0 3.2 0.00 0.00 0.00 78 1015.2
20260506024537 15 0 0.0 0.0 0.00 0.00 0.00 77 1015.2
20260506023032 15 0 0.0 3.2 0.00 0.00 0.00 76 1015.1
20260506021529 15 0 0.0 4.8 0.00 0.00 0.00 77 1015.1
20260506020028 15 325 1.6 4.8 0.00 0.00 0.00 77 1015.1
20260506014528 16 325 3.2 6.4 0.00 0.00 0.00 77 1015.1
20260506013032 16 0 0.0 4.8 0.00 0.00 0.00 76 1015.0
20260506011557 16 325 1.6 6.4 0.00 0.00 0.00 76 1015.0
20260506010030 16 325 1.6 4.8 0.00 0.00 0.00 76 1015.0
20260506004528 16 325 0.0 6.4 0.00 0.00 0.00 77 1015.0
20260506003030 16 325 3.2 6.4 0.00 0.00 0.00 77 1015.1
20260506001529 16 325 1.6 6.4 0.00 0.00 0.00 77 1015.2
20260506000048 16 325 1.6 8.0 0.00 0.00 0.00 77 1015.3
20260505234541 16 0 1.6 8.0 0.00 0.00 0.00 77 1015.3
20260505233030 16 325 0.0 6.4 0.00 0.00 0.00 77 1015.5
20260505231529 16 324 1.6 8.0 0.00 0.00 0.00 76 1015.4
20260505230050 16 0 0.0 4.8 0.00 0.00 0.00 75 1015.5
20260505224538 16 0 1.6 6.4 0.00 0.00 0.00 75 1015.6
20260505223028 16 327 1.6 6.4 0.00 0.00 0.00 75 1015.7
20260505221530 16 327 1.6 6.4 0.00 0.00 0.00 76 1015.8
20260505220027 16 0 0.0 4.8 0.00 0.00 0.00 75 1015.7
20260505214531 16 327 0.0 4.8 0.00 0.00 0.00 74 1015.8
20260505213030 16 0 0.0 4.8 0.00 0.00 0.00 76 1015.9
20260505211535 16 327 1.6 6.4 0.00 0.00 0.00 76 1016.0
20260505210031 16 0 0.0 4.8 0.00 0.00 0.00 76 1016.1
20260505204542 15 0 0.0 4.8 0.00 0.00 0.00 77 1016.3
20260505203031 15 0 1.6 4.8 0.00 0.00 0.00 79 1016.3
20260505201531 15 327 1.6 8.0 0.00 0.00 0.00 80 1016.3
20260505200030 15 0 1.6 9.7 0.00 0.00 0.00 80 1016.4
20260505194536 15 259 0.0 4.8 0.00 0.00 0.00 80 1016.4
20260505193027 14 0 0.0 6.4 0.00 0.00 0.00 81 1016.4
20260505191531 14 214 0.0 4.8 0.00 0.00 0.00 83 1016.4
20260505190036 13 0 0.0 1.6 0.00 0.00 0.00 85 1016.5
20260505184533 13 214 0.0 4.8 0.00 0.00 0.00 85 1016.5
20260505183030 13 0 0.0 3.2 0.00 0.00 0.00 88 1016.5
20260505181535 12 0 0.0 1.6 0.00 0.00 0.00 89 1016.5
20260505180040 12 0 0.0 3.2 0.00 0.00 0.00 90 1016.4
20260505174533 12 0 0.0 1.6 0.00 0.00 0.00 92 1016.4
20260505173030 11 0 0.0 1.6 0.00 0.00 0.00 94 1016.2
20260505171528 11 0 0.0 0.0 0.00 0.00 0.00 95 1016.2
20260505170030 11 0 0.0 1.6 0.00 0.00 0.00 95 1016.2
20260505164528 11 0 0.0 1.6 0.00 0.00 0.00 95 1016.1
20260505163028 11 0 0.0 1.6 0.00 0.00 0.00 96 1016.0
20260505161528 11 0 0.0 0.0 0.00 0.00 0.00 96 1015.8
20260505153028 11 0 0.0 1.6 0.00 0.00 0.00 96 1015.7
20260505151527 11 0 0.0 1.6 0.00 0.00 0.00 95 1015.8
20260505124541 11 0 0.0 1.6 0.00 0.00 0.00 90 1014.7
20260505123027 11 0 0.0 3.2 0.00 0.00 0.00 90 1014.6
20260505121559 11 0 0.0 0.0 0.00 0.00 0.00 89 1014.6
20260505120029 11 0 0.0 0.0 0.00 0.00 0.00 89 1014.5
20260505114533 11 0 0.0 0.0 0.00 0.00 0.00 89 1014.5
20260505113030 11 0 0.0 0.0 0.00 0.00 0.00 88 1014.5
20260505111536 11 0 0.0 4.8 0.00 0.00 0.00 88 1014.4
20260505101528 12 0 0.0 1.6 0.00 0.00 0.00 87 1014.2
20260505100038 12 0 0.0 1.6 0.00 0.00 0.00 87 1014.2
20260505094528 12 0 0.0 3.2 0.00 0.00 0.00 86 1014.2
20260505093030 12 0 0.0 3.2 0.00 0.00 0.00 86 1014.0
20260505091535 12 0 0.0 3.2 0.00 0.00 0.00 86 1013.9
20260505090030 12 0 0.0 4.8 0.00 0.00 0.00 86 1013.9
20260505084530 12 214 0.0 4.8 0.00 0.00 0.00 86 1013.6
20260505083041 12 214 0.0 3.2 0.00 0.00 0.00 86 1013.6
20260505081532 12 0 0.0 4.8 0.00 0.00 0.00 85 1013.5